Location: Sherrills_Ford_Terrell
(35.6000°N, 80.9830°W)
Time: 01:02:03
(UTC-04:00)

ISS - Visible Passes

Search period start: 21 April 2015 00:00
Search period end: 01 May 2015 00:00
Orbit: 395 x 403 km, 51.6° (Epoch: 20 April)

Date Brightness Start Highest point End Pass type
(mag) Time Alt. Az. Time Alt. Az. Time Alt. Az.
21 Apr -2.1 21:52:38 10° WNW 21:55:22 36° WSW 21:55:22 36° WSW visible
22 Apr -3.4 20:58:24 10° NW 21:01:40 90° NNE 21:03:42 21° SE visible
23 Apr -0.9 21:41:36 10° W 21:43:38 15° SW 21:44:36 14° SSW visible
24 Apr -1.9 20:46:37 10° WNW 20:49:35 33° SW 20:52:32 10° SSE visible
26 Apr -0.6 20:35:25 10° W 20:37:11 14° SW 20:38:51 10° SSW visible
